Location: Bemmer
(51.5498°N, 5.6249°E)
Time: 03:07:45
(UTC+00:00)

SAR-Lupe-4 - Pass Details

Date: 03 March 2021
Orbit: 481 x 485 km, 98.2° (Epoch: 26 March)

Event Time Altitude Azimuth Distance (km) Brightness Sun altitude
Rises 18:04:14 0° 22° (NNE) 2,557 7.0 -7.4°
Reaches altitude 10° 18:06:27 10° 32° (NNE) 1,672 6.0 -7.8°
Maximum altitude 18:09:43 32° 98° (E) 846 4.2 -8.3°
Drops below altitude 10° 18:12:57 10° 163° (SSE) 1,659 6.1 -8.8°
Sets 18:15:09 0° 174° (S) 2,534 7.1 -9.1°
